Weather History for Key West NAF, FL

Change the Weather History Date:

Thursday, July 3, 2014

  Actual Average Record
Temperature  
Mean Temperature 86 °F -  
Max Temperature 90 °F 88 °F 93 °F (2007)
Min Temperature 82 °F 78 °F 72 °F (1958)
Cooling Degree Days 21    
Growing Degree Days 36 (Base 50)    
Moisture  
Dew Point 75 °F    
Average Humidity 71    
Maximum Humidity 82    
Minimum Humidity 59    
Precipitation  
Precipitation 0.00 in - - ()
Sea Level Pressure  
Sea Level Pressure 30.06 in    
Wind  
Wind Speed 9 mph (SSW)    
Max Wind Speed 16 mph    
Max Gust Speed -    
Visibility 10 miles    
Events Thunderstorm    
Averages and records for this station are not official NWS values.
T = Trace of Precipitation, MM = Missing Value Source: NWS Daily Summary

Daily Weather History Graph

Daily Weather History Graph

Search for Another Location

Airport:

Trip Planner

Search our weather history database for the weather conditions in past years. The results will help you decide how hot, cold, wet, or windy it might be!

Date:

Astronomy

Jul. 03, 2014 Rise Set
Actual Time 6:42 AM EDT 8:19 PM EDT
Civil Twilight 6:16 AM EDT 8:45 PM EDT
Nautical Twilight 5:46 AM EDT 9:15 PM EDT
Astronomical Twilight 5:14 AM EDT 9:47 PM EDT
Moon 12:02 PM EDT (7/3) No Moon Set
Length of Visible Light 14h 28m
Length of Day
13h 37m
Waxing Crescent, 33% of the Moon is Illuminated
Jul 3
Waxing Crescent
Jul 5
First Quarter
Jul 12
Full
Jul 18
Last Quarter
Jul 26
New

Hourly Weather History & Observations

Time (EDT) Temp. Heat Index Dew Point Humidity Pressure Visibility Wind Dir Wind Speed Gust Speed Precip Events Conditions
12:53 AM 82.9 °F 90.8 °F 75.9 °F 79% 30.02 in 10.0 mi South 10.4 mph - N/A   Clear
1:53 AM 84.0 °F 92.6 °F 75.9 °F 76% 30.01 in 10.0 mi South 11.5 mph - N/A   Partly Cloudy
2:53 AM 84.0 °F 93.7 °F 77.0 °F 79% 30.01 in 10.0 mi South 13.8 mph - N/A   Partly Cloudy
3:53 AM 82.9 °F 90.8 °F 75.9 °F 79% 30.00 in 10.0 mi South 11.5 mph - N/A   Clear
4:53 AM 82.9 °F 91.8 °F 77.0 °F 82% 30.01 in 10.0 mi SSW 9.2 mph - N/A   Partly Cloudy
5:53 AM 82.9 °F 90.8 °F 75.9 °F 79% 30.02 in 10.0 mi SSW 9.2 mph - N/A   Partly Cloudy
5:58 AM 82.9 °F 90.8 °F 75.9 °F 79% 30.02 in 10.0 mi SSW 10.4 mph - N/A   Scattered Clouds
6:53 AM 82.9 °F 90.8 °F 75.9 °F 79% 30.04 in 10.0 mi SW 5.8 mph - N/A   Scattered Clouds
7:53 AM 84.0 °F 92.6 °F 75.9 °F 76% 30.06 in 10.0 mi SW 4.6 mph - N/A   Scattered Clouds
8:53 AM 86.0 °F 95.1 °F 75.0 °F 70% 30.07 in 10.0 mi SSW 6.9 mph - N/A   Scattered Clouds
9:53 AM 87.1 °F 96.3 °F 75.0 °F 67% 30.07 in 10.0 mi SSW 6.9 mph - N/A   Scattered Clouds
10:53 AM 88.0 °F 97.5 °F 75.0 °F 65% 30.08 in 10.0 mi SSW 5.8 mph - N/A   Scattered Clouds
11:53 AM 89.1 °F 99.1 °F 75.0 °F 63% 30.09 in 10.0 mi South 5.8 mph - N/A   Scattered Clouds
12:53 PM 90.0 °F 100.2 °F 75.0 °F 61% 30.10 in 10.0 mi South 9.2 mph - N/A   Scattered Clouds
1:53 PM 89.1 °F 99.1 °F 75.0 °F 63% 30.10 in 10.0 mi SSW 5.8 mph - N/A   Scattered Clouds
2:53 PM 89.1 °F 100.2 °F 75.9 °F 65% 30.10 in 10.0 mi South 9.2 mph - N/A   Mostly Cloudy
3:11 PM 87.1 °F 95.4 °F 73.9 °F 65% 30.10 in 10.0 mi SW 16.1 mph - N/A Thunderstorm Thunderstorm
3:26 PM 86.0 °F 95.1 °F 75.0 °F 70% 30.09 in 10.0 mi South 13.8 mph - N/A   Mostly Cloudy
3:53 PM 88.0 °F 96.5 °F 73.9 °F 63% 30.08 in 10.0 mi SSW 9.2 mph - N/A   Mostly Cloudy
4:53 PM 87.1 °F 92.8 °F 71.1 °F 59% 30.06 in 10.0 mi South 9.2 mph - N/A   Scattered Clouds
5:53 PM 87.1 °F 95.4 °F 73.9 °F 65% 30.06 in 10.0 mi SSW 11.5 mph - N/A   Clear
6:53 PM 86.0 °F 95.1 °F 75.0 °F 70% 30.05 in 10.0 mi SSW 6.9 mph - N/A   Clear
7:53 PM 84.9 °F 93.3 °F 75.0 °F 72% 30.05 in 10.0 mi SSE 6.9 mph - N/A   Clear
8:53 PM 84.0 °F 91.9 °F 75.0 °F 74% 30.07 in 10.0 mi SSE 6.9 mph - N/A   Clear
9:53 PM 82.9 °F 90.8 °F 75.9 °F 79% 30.09 in 10.0 mi SSE 6.9 mph - N/A   Clear
10:53 PM 84.0 °F 91.9 °F 75.0 °F 74% 30.10 in 10.0 mi SSE 4.6 mph - N/A   Clear
11:53 PM 84.0 °F 91.9 °F 75.0 °F 74% 30.12 in 10.0 mi SSW 8.1 mph - N/A   Clear